This is the latest recevied weather packets stored in our database for station/object WX7FGZ-3. If no packets are shown the sender has not sent any weather packets the latest 10 day(s).
| Time | Temp. | Humidity | Pressure | Rain* | Wind** | Luminosity | Snow |
|---|---|---|---|---|---|---|---|
| 1777744903 | 15° C | 32% | 1019.1 hPa | 0 mm | - | - | - |
| 1777744602 | 15° C | 34% | 1019 hPa | 0 mm | - | - | - |
| 1777744302 | 14.44° C | 35% | 1019.2 hPa | 0 mm | - | - | - |
| 1777744002 | 14.44° C | 33% | 1019.2 hPa | 0 mm | - | - | - |
| 1777743403 | 15° C | 30% | 1019.1 hPa | 0 mm | - | - | - |
| 1777743101 | 15.56° C | 32% | 1018.9 hPa | 0 mm | - | - | - |
| 1777741899 | 15° C | 27% | 1019.2 hPa | 0 mm | - | - | - |
| 1777741599 | 15.56° C | 23% | 1019.1 hPa | 0 mm | - | - | - |
| 1777740999 | 15.56° C | 23% | 1019.3 hPa | 0 mm | - | - | - |
| 1777740698 | 15.56° C | 24% | 1019.1 hPa | 0 mm | - | - | - |
| 1777740398 | 15° C | 28% | 1019.3 hPa | 0 mm | - | - | - |
| 1777740098 | 14.44° C | 30% | 1019.2 hPa | 0 mm | - | - | - |
| 1777738296 | 14.44° C | 35% | 1019.3 hPa | 0 mm | - | - | - |
| 1777737695 | 13.89° C | 34% | 1019.5 hPa | 0 mm | - | - | - |
| 1777737096 | 13.33° C | 35% | 1019.4 hPa | 0 mm | - | - | - |
| 1777736494 | 12.78° C | 35% | 1019.4 hPa | 0 mm | - | - | - |
| 1777736196 | 12.78° C | 37% | 1019.2 hPa | 0 mm | - | - | - |
| 1777735894 | 12.22° C | 34% | 1019.2 hPa | 0 mm | - | - | - |
| 1777734993 | 12.22° C | 39% | 1019.4 hPa | 0 mm | - | - | - |
| 1777734693 | 11.67° C | 38% | 1019.3 hPa | 0 mm | - | - | - |
| 1777733792 | 11.11° C | 39% | 1019.6 hPa | 0 mm | - | - | - |
| 1777733492 | 11.11° C | 39% | 1019.7 hPa | 0 mm | - | - | - |
| 1777732592 | 10° C | 45% | 1019.7 hPa | 0 mm | - | - | - |
| 1777731990 | 8.89° C | 47% | 1019.4 hPa | 0 mm | - | - | - |
| 1777731690 | 8.33° C | 48% | 1019.6 hPa | 0 mm | - | - | - |
* Rain latest hour (hover to see other rain measurements)
** Current wind speed in m/s (hover to see current wind gust speed)